This is the latest recevied weather packets stored in our database for station/object SP9MUF-14. If no packets are shown the sender has not sent any weather packets the latest 10 day(s).
| Time | Temp. | Humidity | Pressure | Rain* | Wind** | Luminosity | Snow |
|---|---|---|---|---|---|---|---|
| 1788175210 | 28.89° C | 41% | 1012.5 hPa | 0 mm | - | 743 W/m² | - |
| 1788174908 | 28.89° C | 43% | 1012.6 hPa | 0 mm | - | 273 W/m² | - |
| 1788174607 | 28.89° C | 42% | 1012.7 hPa | 0 mm | - | 190 W/m² | - |
| 1788174001 | 30° C | 40% | 1012.6 hPa | 0 mm | - | 219 W/m² | - |
| 1788173699 | 30° C | 42% | 1012.6 hPa | 0 mm | - | 727 W/m² | - |
| 1788173397 | 30° C | 42% | 1012.6 hPa | 0 mm | - | 590 W/m² | - |
| 1788173095 | 30° C | 41% | 1012.6 hPa | 0 mm | - | 653 W/m² | - |
| 1788172793 | 30° C | 42% | 1012.7 hPa | 0 mm | - | 622 W/m² | - |
| 1788172490 | 28.89° C | 42% | 1012.7 hPa | 0 mm | - | 600 W/m² | - |
| 1788172189 | 28.89° C | 43% | 1012.8 hPa | 0 mm | - | 618 W/m² | - |
| 1788171886 | 28.89° C | 44% | 1012.8 hPa | 0 mm | - | 614 W/m² | - |
| 1788171584 | 28.89° C | 43% | 1012.9 hPa | 0 mm | - | 625 W/m² | - |
| 1788171281 | 28.89° C | 43% | 1012.9 hPa | 0 mm | - | 688 W/m² | - |
| 1788170979 | 28.89° C | 44% | 1013 hPa | 0 mm | - | 736 W/m² | - |
| 1788170677 | 28.89° C | 42% | 1013 hPa | 0 mm | - | 736 W/m² | - |
| 1788170375 | 28.89° C | 43% | 1013.1 hPa | 0 mm | - | 277 W/m² | - |
| 1788170075 | 28.89° C | 40% | 1013.1 hPa | 0 mm | - | 280 W/m² | - |
| 1788169771 | 28.89° C | 42% | 1013.1 hPa | 0 mm | - | 611 W/m² | - |
| 1788169167 | 28.89° C | 45% | 1013.2 hPa | 0 mm | - | 707 W/m² | - |
| 1788168865 | 27.78° C | 46% | 1013.2 hPa | 0 mm | - | 617 W/m² | - |
| 1788168567 | 27.78° C | 43% | 1013.2 hPa | 0 mm | - | 633 W/m² | - |
| 1788168261 | 27.78° C | 46% | 1013.2 hPa | 0 mm | - | 608 W/m² | - |
| 1788167958 | 27.78° C | 47% | 1013.3 hPa | 0 mm | - | 572 W/m² | - |
| 1788167656 | 27.78° C | 50% | 1013.4 hPa | 0 mm | - | 566 W/m² | - |
| 1788167354 | 26.67° C | 51% | 1013.5 hPa | 0 mm | - | 530 W/m² | - |
* Rain latest hour (hover to see other rain measurements)
** Current wind speed in m/s (hover to see current wind gust speed)